Regional Weather Roundup
Issued by NWS Cleveland, OH

Home | Current Version | Previous Version | Graphics & Text | Print | Product List | Glossary On
Versions: 1 2 3 4 5 6 7 8 9 10 11 12 13 14 15 16 17 18 19 20 21 22 23 24 25 26 27 28 29 30 31 32 33 34 35 36 37 38 39 40 41 42 43 44 45 46 47 48 49 50
000
ASUS41 KCLE 280602
RWRCLE
OHIO REGIONAL WEATHER ROUNDUP
NATIONAL WEATHER SERVICE CLEVELAND, OH
200 AM EDT SUN MAY 28 2017

NOTE: "FAIR" INDICATES FEW OR NO CLOUDS BELOW 12,000 FEET WITH NO
SIGNIFICANT WEATHER AND/OR OBSTRUCTIONS TO VISIBILITY.

OHZ001>008-015>018-024>027-034-035-043-044-280700-
   NORTHWEST OHIO

CITY           SKY/WX    TMP DP  RH WIND       PRES   REMARKS
DEFIANCE       CLEAR     57  53  86 NE3       29.81F
FINDLAY        CLOUDY    63  53  70 E9        29.80F
TOLEDO EXPRESS CLOUDY    57  54  89 E3        29.82F
TOLEDO EXEC    CLOUDY    62  54  74 E5        29.84F
LIMA           CLOUDY    61  58  90 E5        29.81F
$$

OHZ009>014-019>023-028>033-038-089-280700-
   NORTHEAST OHIO

CITY           SKY/WX    TMP DP  RH WIND       PRES   REMARKS
CLE-HOPKINS    CLOUDY    63  52  67 SE3       29.88R
CLE-LAKEFRONT  CLOUDY    63  50  62 CALM      29.85S
CUY CO. ARPT   NOT AVBL
LORAIN-ELYRIA  CLOUDY    60  50  69 SE6       29.85F
ASHTABULA      CLOUDY    51  51 100 CALM      29.89F FOG
AKRON-CANTON   PTCLDY    59  51  75 E7        29.86F
WOOSTER        CLOUDY    59  53  80 E6        29.86F
MANSFIELD      CLOUDY    60  54  80 E7        29.85F
YOUNGSTOWN     CLOUDY    55  51  86 E3        29.87F
$$

OHZ042-051>053-060>062-070>072-077>081-280700-
  SOUTHWEST OHIO

CITY           SKY/WX    TMP DP  RH WIND       PRES   REMARKS
CINC-COVINGTON MOCLDY    66  62  87 S6        29.80F
CINC-LUNKEN    CLOUDY    68  63  84 SE5       29.80F
HAMILTON       CLOUDY    70  64  81 SW7       29.80F
DAYTON         CLOUDY    66  63  90 E6        29.80F
WRIGHT-PAT AFB MOCLDY    68  68 100 CALM      29.79F
DAYTON GENERAL CLOUDY    68  65  90 S6        29.79F
WILMINGTON     CLOUDY    67  64  90 SW9       29.80F
$$

OHZ036-037-039>041-045>050-054>059-063>069-073>076-082>088-280700-
  CENTRAL AND SOUTHEAST OHIO

CITY           SKY/WX    TMP DP  RH WIND       PRES   REMARKS
COLUMBUS       CLOUDY    67  65  93 E5        29.81F
OSU AIRPORT    CLOUDY    66  65  96 E6        29.81F
BOLTON FIELD   CLOUDY    68  66  92 E5        29.81F
RICKENBACK AFB CLOUDY    67  66  97 SE5       29.80F
NEWARK         PTCLDY    66  63  90 CALM      29.82F
MARION         CLOUDY    62  57  83 E5        29.83F
LANCASTER      MOCLDY    68  65  90 CALM      29.83S
ZANESVILLE     MOCLDY    67  63  87 E3        29.83F
NEW PHILLY     NOT AVBL
$$




USA.gov is the U.S. government's official web portal to all federal, state and local government web resources and services.